This demonstration page uses our WeatherBlox Daily Observations layout. Learn more.

39.92423, -83.80882

Hourly Observations for August 15, 2017

Temp ( °F °C ) Dew Point ( °F °C ) Humidity (%) Winds ( mph kmh ) Pressure ( in mb ) Visibility ( mi km ) Precip ( " mm )
12:56 am 00:56 Clear 67 19.4 65 18.3 93 93 Calm 29.88 1012 7 11.26538 0 0
1:25 am 01:25 Clear with Mist and Fog 66 19 64 18 94 94 Calm 29.88 1012 1 1.60934 0 0
1:33 am 01:33 Clear with Mist and Fog 66 19 64 18 94 94 Calm 29.88 1012 0.75 1.207005 0 0
1:35 am 01:35 Clear with Mist and Fog 66 19 64 18 94 94 Calm 29.88 1012 1.25 2.011675 0 0
1:49 am 01:49 Clear with Mist and Fog 66 19 64 18 94 94 Calm 29.88 1012 0.75 1.207005 0 0
1:56 am 01:56 Clear with Mist and Fog 65 18.3 64 17.8 97 97 Calm 29.88 1012 0.75 1.207005 0 0
1:59 am 01:59 Clear with Mist and Fog 64 18 64 18 100 100 Calm 29.88 1012 1.25 2.011675 0 0
2:31 am 02:31 Clear with Mist and Fog 64 18 64 18 100 100 Calm 29.88 1012 1.5 2.41401 0 0
2:33 am 02:33 Clear with Mist and Fog 64 18 64 18 100 100 Calm 29.88 1012 0.75 1.207005 0 0
2:43 am 02:43 Clear with Mist and Fog 64 18 64 18 100 100 Calm 29.88 1012 1.75 2.816345 0 0
2:46 am 02:46 Clear with Mist and Fog 66 19 64 18 94 94 Calm 29.88 1012 0.75 1.207005 0 0
2:50 am 02:50 Clear with Fog 64 18 64 18 100 100 Calm 29.85 1011 0.25 0.402335 0 0
2:56 am 02:56 Clear with Fog 65 18.3 64 17.8 97 97 Calm 29.88 1012 0.25 0.402335 0 0
3:09 am 03:09 Clear with Mist and Fog 64 18 64 18 100 100 Calm 29.85 1011 0.75 1.207005 0 0
3:11 am 03:11 Clear with Mist and Fog 64 18 64 18 100 100 Calm 29.85 1011 1.75 2.816345 0 0
3:23 am 03:23 Clear with Mist and Fog 64 18 64 18 100 100 Calm 29.85 1011 0.75 1.207005 0 0
3:28 am 03:28 Mostly Cloudy with Fog 64 18 64 18 100 100 Calm 29.85 1011 0.5 0.80467 0 0
3:35 am 03:35 Mostly Cloudy with Mist and Fog 63 17 63 17 100 100 Calm 29.85 1011 1 1.60934 0 0
3:37 am 03:37 Mostly Clear with Mist and Fog 63 17 63 17 100 100 Calm 29.85 1011 4 6.43736 0 0
3:43 am 03:43 Partly Cloudy with Mist and Fog 63 17 63 17 100 100 Calm 29.85 1011 1.25 2.011675 0 0
3:45 am 03:45 Mostly Cloudy with Mist and Fog 63 17 63 17 100 100 Calm 29.85 1011 0.75 1.207005 0 0
3:52 am 03:52 Mostly Cloudy with Fog 63 17 63 17 100 100 Calm 29.85 1011 0.25 0.402335 0 0
3:56 am 03:56 Mostly Cloudy with Fog 63 17.2 62 16.7 97 97 Calm 29.87 1012 0.25 0.402335 0 0
4:29 am 04:29 Cloudy with Fog 63 17 63 17 100 100 Calm 29.85 1011 0.5 0.80467 0 0
4:56 am 04:56 Cloudy with Fog 63 17.2 62 16.7 97 97 Calm 29.87 1012 0.5 0.80467 0 0
4:59 am 04:59 Cloudy with Mist and Fog 63 17 63 17 100 100 Calm 29.85 1011 1 1.60934 0 0
5:03 am 05:03 Cloudy with Mist and Fog 63 17 63 17 100 100 Calm 29.85 1011 2 3.21868 0 0
5:10 am 05:10 Cloudy with Mist and Fog 63 17 63 17 100 100 Calm 29.85 1011 1 1.60934 0 0
5:12 am 05:12 Cloudy with Fog 63 17 61 16 94 94 Calm 29.85 1011 0.5 0.80467 0 0
5:20 am 05:20 Cloudy with Fog 63 17 61 16 94 94 Calm 29.85 1011 0.25 0.402335 0 0
5:56 am 05:56 Cloudy with Fog 61 16.1 61 16.1 100 100 Calm 29.88 1012 0.25 0.402335 0 0
6:02 am 06:02 Cloudy with Mist and Fog 61 16 61 16 100 100 Calm 29.91 1013 0.75 1.207005 0 0
6:07 am 06:07 Cloudy with Mist and Fog 61 16 61 16 100 100 Calm 29.91 1013 1.25 2.011675 0 0
6:10 am 06:10 Cloudy with Mist and Fog 61 16 61 16 100 100 Calm 29.91 1013 0.75 1.207005 0 0
6:19 am 06:19 Cloudy with Fog 61 16 61 16 100 100 Calm 29.91 1013 0.5 0.80467 0 0
6:27 am 06:27 Cloudy with Fog 61 16 61 16 100 100 Calm 29.91 1013 0.25 0.402335 0 0
6:42 am 06:42 Cloudy with Fog 61 16 61 16 100 100 Calm 29.91 1013 0.5 0.80467 0 0
6:56 am 06:56 Cloudy with Fog 60 15.6 60 15.6 100 100 Calm 29.89 1012 0.25 0.402335 0 0
7:04 am 07:04 Cloudy with Mist and Fog 61 16 59 15 94 94 Calm 29.91 1013 0.75 1.207005 0 0
7:06 am 07:06 Cloudy with Mist and Fog 61 16 59 15 94 94 Calm 29.91 1013 1.25 2.011675 0 0
7:15 am 07:15 Cloudy with Fog 59 15 59 15 100 100 Calm 29.91 1013 0.5 0.80467 0 0
7:23 am 07:23 Cloudy with Fog 61 16 61 16 100 100 Calm 29.91 1013 0.25 0.402335 0 0
7:41 am 07:41 Cloudy with Mist and Fog 63 17 61 16 94 94 Calm 29.88 1012 0.75 1.207005 0 0
7:44 am 07:44 Cloudy with Mist and Fog 63 17 63 17 100 100 Calm 29.88 1012 1.25 2.011675 0 0
7:49 am 07:49 Cloudy with Mist and Fog 63 17 63 17 100 100 Calm 29.88 1012 2.5 4.02335 0 0
7:56 am 07:56 Mostly Cloudy with Mist and Fog 64 17.8 63 17.2 96 96 Calm 29.91 1013 3 4.82802 0 0
8:05 am 08:05 Partly Cloudy with Mist and Fog 64 18 64 18 100 100 Calm 29.91 1013 4 6.43736 0 0
8:56 am 08:56 Sunny with Mist and Fog 71 21.7 69 20.6 94 94 WSW 3 6 29.92 1013 5 8.0467 0 0
9:21 am 09:21 Mostly Sunny 73 23 70 21 89 89 W 7 11 29.91 1013 10 16.0934 0 0
9:56 am 09:56 Sunny 74 23.3 69 20.6 85 85 NW 6 9 29.92 1013 10 16.0934 0 0
10:56 am 10:56 Mostly Sunny 78 25.6 68 20 71 71 NW 6 9 29.93 1013 10 16.0934 0 0
11:56 am 11:56 Partly Cloudy 81 27.2 66 18.9 61 61 WNW 9 15 29.93 1014 10 16.0934 0 0
12:56 pm 12:56 Mostly Sunny 82 27.8 65 18.3 56 56 NNW 6 9 29.94 1014 10 16.0934 0 0
1:56 pm 13:56 Sunny 83 28.3 66 18.9 57 57 VRB 5 7 29.93 1014 10 16.0934 0 0
2:56 pm 14:56 Sunny 84 28.9 67 19.4 57 57 W 7 11 29.93 1014 10 16.0934 0 0
3:56 pm 15:56 Partly Cloudy 86 30 67 19.4 53 53 SW 8 13 29.92 1013 10 16.0934 0 0
4:56 pm 16:56 Mostly Cloudy 86 30 66 18.9 51 51 VRB 5 7 29.91 1013 10 16.0934 0 0
5:56 pm 17:56 Mostly Sunny 84 28.9 66 18.9 55 55 VRB 3 6 29.91 1013 10 16.0934 0 0
6:56 pm 18:56 Mostly Sunny 85 29.4 66 18.9 53 53 NW 3 6 29.91 1013 10 16.0934 0 0
7:56 pm 19:56 Sunny 80 26.7 69 20.6 69 69 Calm 29.92 1013 10 16.0934 0 0
8:56 pm 20:56 Partly Cloudy 73 22.8 69 20.6 87 87 Calm 29.93 1013 10 16.0934 0 0
9:56 pm 21:56 Cloudy 76 24.4 69 20.6 79 79 WNW 5 7 29.94 1014 10 16.0934 0 0
10:56 pm 22:56 Cloudy 73 22.8 69 20.6 87 87 Calm 29.96 1015 10 16.0934 0 0
11:56 pm 23:56 Mostly Cloudy 72 22.2 69 20.6 91 91 Calm 29.97 1015 10 16.0934 0 0

Powered by AerisWeather